FW9877 Weather Reports


time (UTC)temp
F
wind
direction
speed
knots
gust
knots
rain 1hr
in
rain 24hr
in
rain mn
in
humidity
%
barometer
mb
20260504081535 45 360 0.9 4.3 0.00 0.00 0.00 73 1010.1
20260504044530 42 0 0.0 0.0 0.00 0.00 0.00 77 1011.1
20260504043032 41 0 0.0 0.0 0.00 0.00 0.00 76 1011.1
20260504041535 41 0 0.0 0.0 0.00 0.00 0.00 75 1011.1
20260504040030 41 0 0.0 0.0 0.00 0.00 0.00 74 1010.9
20260504034529 40 0 0.0 0.0 0.00 0.00 0.00 73 1010.8
20260504033031 40 0 0.0 0.0 0.00 0.00 0.00 72 1010.7
20260504031532 41 0 0.0 0.0 0.00 0.00 0.00 70 1010.7
20260504030032 41 0 0.0 0.0 0.00 0.00 0.00 69 1010.7
20260504024530 42 0 0.0 0.0 0.00 0.00 0.00 66 1010.5
20260504023034 43 0 0.0 0.0 0.00 0.00 0.00 65 1010.6
20260504021532 44 0 0.0 0.0 0.00 0.00 0.00 61 1010.7
20260504020028 44 0 0.0 1.7 0.00 0.00 0.00 62 1010.7
20260504014534 46 0 0.0 0.0 0.00 0.00 0.00 58 1010.8
20260504013035 47 0 0.0 0.0 0.00 0.00 0.00 54 1010.6
20260504011532 48 0 0.0 0.0 0.00 0.00 0.00 52 1010.5
20260504010030 49 0 0.0 0.0 0.00 0.00 0.00 51 1010.2
20260504004530 50 0 0.0 0.0 0.00 0.00 0.00 47 1010.2
20260504003033 50 0 0.0 0.9 0.00 0.00 0.00 46 1010.1
20260504001537 51 0 0.0 1.7 0.00 0.00 0.00 45 1009.9
20260504000030 52 360 0.0 5.2 0.00 0.00 0.00 45 1009.7
20260503234546 52 360 0.0 3.5 0.00 0.00 0.00 44 1009.6
20260503233037 53 0 1.7 5.2 0.00 0.00 0.00 41 1009.4
20260503231533 53 0 0.9 5.2 0.00 0.00 0.00 41 1009.1
20260503230033 53 360 1.7 7.0 0.00 0.00 0.00 38 1009.0
20260503224532 54 0 0.0 4.3 0.00 0.00 0.00 39 1008.9
20260503223032 54 360 1.7 5.2 0.00 0.00 0.00 35 1008.8
20260503221536 54 360 2.6 12.2 0.00 0.00 0.00 34 1008.9
20260503220032 54 309 0.0 7.8 0.00 0.00 0.00 34 1008.9
20260503214533 55 9 1.7 7.0 0.00 0.00 0.00 34 1008.8
20260503213036 55 54 3.5 11.3 0.00 0.00 0.00 36 1008.8
20260503211530 55 360 0.9 5.2 0.00 0.00 0.00 33 1008.7
20260503210032 55 360 2.6 10.4 0.00 0.00 0.00 34 1008.8
20260503204530 55 232 2.6 10.4 0.00 0.00 0.00 40 1008.9
20260503203031 54 360 1.7 7.0 0.00 0.00 0.00 37 1009.1
20260503201530 55 360 1.7 7.8 0.00 0.00 0.00 37 1009.2
20260503200032 54 0 0.9 4.3 0.00 0.00 0.00 41 1009.3
20260503194530 54 360 0.9 7.0 0.00 0.00 0.00 39 1009.5
20260503193030 55 360 2.6 10.4 0.00 0.00 0.00 40 1009.8
20260503191534 54 360 0.9 7.8 0.00 0.00 0.00 43 1009.8
20260503190030 53 360 0.9 5.2 0.00 0.00 0.00 41 1009.9
20260503184528 52 360 2.6 8.7 0.00 0.00 0.00 43 1010.2
20260503183030 52 360 1.7 4.3 0.00 0.00 0.00 45 1010.3
20260503181530 51 360 0.9 7.0 0.00 0.00 0.00 48 1010.3
20260503180035 51 360 1.7 4.3 0.00 0.00 0.00 46 1010.5
20260503174535 52 360 1.7 7.0 0.00 0.00 0.00 44 1010.4
20260503173038 51 360 0.9 5.2 0.00 0.00 0.00 45 1010.4
20260503171531 51 360 1.7 7.8 0.00 0.00 0.00 44 1010.4